TimeCST,TemperatureF,Dew PointF,Humidity,Sea Level PressureIn,VisibilityMPH,Wind Direction,Wind SpeedMPH,Gust SpeedMPH,PrecipitationIn,Events,Conditions,WindDirDegrees,DateUTC
12:53 AM,35.1,33.1,92,30.15,10.0,Calm,Calm,-,N/A,,Clear,0,2013-01-21 06:53:00
1:53 AM,34.0,30.9,89,30.14,10.0,Calm,Calm,-,N/A,,Clear,0,2013-01-21 07:53:00
2:53 AM,34.0,30.9,89,30.14,10.0,Calm,Calm,-,N/A,,Clear,0,2013-01-21 08:53:00
3:53 AM,30.9,30.0,96,30.14,10.0,Calm,Calm,-,N/A,,Clear,0,2013-01-21 09:53:00
4:53 AM,33.1,28.0,82,30.14,10.0,NNW,3.5,-,N/A,,Clear,330,2013-01-21 10:53:00
5:53 AM,33.1,27.0,78,30.16,10.0,North,5.8,-,N/A,,Clear,350,2013-01-21 11:53:00
6:53 AM,32.0,24.1,73,30.19,10.0,North,6.9,-,N/A,,Clear,360,2013-01-21 12:53:00
7:53 AM,34.0,25.0,70,30.22,10.0,North,5.8,-,N/A,,Clear,360,2013-01-21 13:53:00
8:53 AM,37.9,23.0,55,30.27,10.0,North,13.8,-,N/A,,Partly Cloudy,360,2013-01-21 14:53:00
9:53 AM,39.9,21.9,49,30.28,10.0,North,11.5,-,N/A,,Partly Cloudy,10,2013-01-21 15:53:00
10:53 AM,43.0,21.0,42,30.27,10.0,North,10.4,-,N/A,,Partly Cloudy,360,2013-01-21 16:53:00
11:53 AM,45.0,21.0,39,30.24,10.0,North,11.5,18.4,N/A,,Partly Cloudy,360,2013-01-21 17:53:00
12:53 PM,45.0,18.0,34,30.23,10.0,NW,11.5,-,N/A,,Partly Cloudy,310,2013-01-21 18:53:00
1:53 PM,46.0,18.0,33,30.22,10.0,North,8.1,-,N/A,,Partly Cloudy,360,2013-01-21 19:53:00
2:53 PM,46.9,18.0,32,30.22,10.0,Calm,Calm,-,N/A,,Partly Cloudy,0,2013-01-21 20:53:00
3:53 PM,46.0,19.9,35,30.22,10.0,NW,13.8,-,N/A,,Partly Cloudy,320,2013-01-21 21:53:00
4:53 PM,43.0,19.9,40,30.23,10.0,NW,9.2,-,N/A,,Partly Cloudy,310,2013-01-21 22:53:00
5:53 PM,37.9,21.9,53,30.25,10.0,NNW,4.6,-,N/A,,Partly Cloudy,330,2013-01-21 23:53:00
6:53 PM,37.0,21.0,52,30.26,10.0,NNW,6.9,-,N/A,,Clear,340,2013-01-22 00:53:00
7:53 PM,35.1,19.9,54,30.27,10.0,NNW,6.9,-,N/A,,Clear,330,2013-01-22 01:53:00
8:53 PM,34.0,19.0,54,30.28,10.0,NW,5.8,-,N/A,,Clear,320,2013-01-22 02:53:00
9:53 PM,33.1,19.0,56,30.29,10.0,North,5.8,-,N/A,,Clear,350,2013-01-22 03:53:00
10:53 PM,32.0,18.0,56,30.28,10.0,North,5.8,-,N/A,,Clear,350,2013-01-22 04:53:00
11:53 PM,30.0,18.0,61,30.28,10.0,NNW,3.5,-,N/A,,Clear,340,2013-01-22 05:53:00